sat.trackr.live / text

‹ back to catalog

STARLINK-11618 [DTC]

NORAD 63185 · 2025-048C

PAYLOAD ACTIVE UNKNOWN

§ Identity

Operator
Country
US
Launch date
2025-03-13
Launch site
AFETR
Launch vehicle
Mass (kg)
RCS (m²)

Purposes: comms

External: N2YO · Heavens-Above · Gunter

§ Orbital elements

Epoch: 2026-09-20T04:35:37.860288Z

Period
91.68 min
Inclination
43.0009°
Eccentricity
0.0001366
Mean motion
15.70724689 rev/d
Perigee alt
355.9 km
Apogee alt
357.7 km
Semi-major
6,735.0 km
B*
2.3256e-3
RAAN
227.2906°
Arg perigee
258.0910°
Mean anomaly
101.9804°
Rev number
8,910

§ Raw data

STARLINK-11618 [DTC]1 63185U 25048C   26263.19141042  .00307787  00000+0  23256-2 0  99942 63185  43.0009 227.2906 0001366 258.0910 101.9804 15.70724689 89100

JSON: /api/v1/satellites/63185 · /tle

For live sub-satellite position, see the globe view (requires WebGL).

§ Visibility from observer

Set your observer location to see the next 7 days of passes ≥ 10°. The values pass through the URL so the page stays shareable.

No JS? Fill the form by hand. The geolocation button needs JavaScript.